This demonstration page uses our WeatherBlox Daily Observations layout. Learn more.

Left ArrowRight Arrow

Hourly Observations for October 15, 2018

Temp ( °F °C ) Dew Point ( °F °C ) Humidity (%) Winds ( mph kmh ) Pressure ( in mb ) Visibility ( mi km ) Precip ( " mm )
12:53 am 00:53 Cloudy 31 -0.6 22 -5.6 69 69 NNW 9 15 30.43 1031 10 16 0.00 0.00
1:53 am 01:53 Cloudy 30 -1.1 23 -5 75 75 NW 7 11 30.43 1030 10 16 0.00 0.00
2:53 am 02:53 Cloudy 31 -0.6 22 -5.6 69 69 NNW 9 15 30.43 1031 10 16 0.00 0.00
3:53 am 03:53 Cloudy 30 -1.1 22 -5.6 72 72 NW 7 11 30.42 1030 10 16 0.00 0.00
4:53 am 04:53 Clear 27 -2.8 21 -6.1 78 78 WNW 5 7 30.42 1030 10 16 0.00 0.00
5:53 am 05:53 Clear 25 -3.9 21 -6.1 85 85 W 7 11 30.44 1031 10 16 0.00 0.00
6:53 am 06:53 Clear 25 -3.9 20 -6.7 81 81 WNW 8 13 30.44 1031 10 16 0.00 0.00
7:53 am 07:53 Sunny 25 -3.9 20 -6.7 81 81 WNW 7 11 30.45 1031 10 16 0.00 0.00
8:53 am 08:53 Sunny 27 -2.8 21 -6.1 78 78 W 6 9 30.46 1032 10 16 0.00 0.00
9:53 am 09:53 Sunny 31 -0.6 23 -5 72 72 W 8 13 30.46 1032 10 16 0.00 0.00
10:53 am 10:53 Sunny 36 2.2 21 -6.1 55 55 WNW 10 17 30.46 1031 10 16 0.00 0.00
11:53 am 11:53 Sunny 38 3.3 22 -5.6 52 52 WNW 8 13 30.45 1031 10 16 0.00 0.00
12:53 pm 12:53 Sunny 41 5 23 -5 49 49 W 8 13 30.44 1031 10 16 0.00 0.00
1:53 pm 13:53 Sunny 43 6.1 24 -4.4 47 47 WSW 8 13 30.42 1030 10 16 0.00 0.00
2:53 pm 14:53 Sunny 45 7.2 23 -5 42 42 W 10 17 30.38 1029 10 16 0.00 0.00
3:53 pm 15:53 Sunny 46 7.8 23 -5 40 40 WSW 14 22 30.36 1028 10 16 0.00 0.00
4:53 pm 16:53 Sunny 47 8.3 22 -5.6 37 37 W 13 20 30.35 1028 10 16 0.00 0.00
5:53 pm 17:53 Sunny 47 8.3 23 -5 39 39 W 12 19 30.34 1027 10 16 0.00 0.00
6:53 pm 18:53 Sunny 44 6.7 24 -4.4 45 45 SW 3 6 30.34 1027 10 16 0.00 0.00
7:53 pm 19:53 Clear 39 3.9 25 -3.9 57 57 SSW 5 7 30.35 1028 10 16 0.00 0.00
8:53 pm 20:53 Clear 39 3.9 25 -3.9 57 57 SSW 7 11 30.34 1027 10 16 0.00 0.00
9:53 pm 21:53 Clear 37 2.8 25 -3.9 62 62 SW 8 13 30.33 1027 10 16 0.00 0.00
10:53 pm 22:53 Clear 36 2.2 25 -3.9 64 64 SW 8 13 30.31 1026 10 16 0.00 0.00
11:53 pm 23:53 Clear 34 1.1 25 -3.9 70 70 SW 6 9 30.31 1026 10 16 0.00 0.00

Powered by AerisWeather